Location: Santa Maria di Sala
(45.5070°N, 12.0300°E)
Time: 00:55:18
(UTC+01:00)

Envisat - Pass Details

Date: 27 September 2023
Orbit: 762 x 764 km, 98.3° (Epoch: 03 December)

Event Time Altitude Azimuth Distance (km) Brightness Sun altitude
Rises 05:10:51 0° 11° (N) 3,243 6.7 -20.4°
Reaches altitude 10° 05:13:10 10° 10° (N) 2,312 5.8 -20.0°
Maximum altitude 05:18:14 72° 287° (WNW) 805 2.9 -19.2°
Enters shadow 05:21:30 22° 206° (SSW) 1,608 4.3 -18.6°
